Ahmedabad International Airport

Airport
ICAO code: 
VAAH
Summary
ICAO Region: 
APAC
Territory: 
Location: 
Ahmedabad, Gujarat,
Coordinates: 
Aerial View: 
23° 4' 28.505" N, 72° 37' 25.153" E
Metar
Observation
VAAH 260730Z 23012KT 6000 NSC 39/24 Q1004 NOSIG
Station
Ahmadabad
Date/Time
2022-05-26 07:30:00
Wind direction
230°
Wind speed
12 kts
Lowest cloud amount
nil significant cloud
Temperature
39°C
Dew point
24°C
Humidity
42%
QNH
1004 hPa
Weather condition
n/a

Description

Sardar Vallabhbhai Patel International Airport is located in the State of Gujarat 8 km from the Ahmedabad railway station and services the cities of Ahmedabad and Gandhinagar.

Climatology

Hot, semi-arid/Steppe climate (Köppen climate classification BSh) - hot, sometimes extremely hot summers and mild to warm winters, with low annual precipitation.

Runways

Designator Length Width Surface Rops
5/23 3489 46 PEM Yes/Yes
Airport map: 
Aerial View: 

SKYbrary Partners:

Safety knowledge contributed by: